CST,Max TemperatureF,Mean TemperatureF,Min TemperatureF,Max Dew PointF,MeanDew PointF,Min DewpointF,Max Humidity, Mean Humidity, Min Humidity, Max Sea Level PressureIn, Mean Sea Level PressureIn, Min Sea Level PressureIn, Max VisibilityMiles, Mean VisibilityMiles, Min VisibilityMiles, Max Wind SpeedMPH, Mean Wind SpeedMPH, Max Gust SpeedMPH,PrecipitationIn, CloudCover, Events, WindDirDegrees
2012-11-1,77,59,41,43,38,32,76,50,24,30.04,29.98,29.90,10,9,5,12,6,,0.00,0,,113
2012-11-2,86,66,46,43,39,27,81,49,12,30.03,29.86,29.77,10,9,5,21,11,28,0.00,0,,235
2012-11-3,62,50,37,37,34,32,87,58,32,30.23,30.16,30.04,10,9,5,16,10,22,0.00,0,,11
2012-11-4,69,50,32,36,31,28,87,50,21,30.22,30.13,30.04,10,10,7,14,7,17,0.00,1,,219
2012-11-5,62,50,37,37,33,32,81,49,34,30.19,30.13,30.09,10,10,10,24,11,29,0.00,2,,342
2012-11-6,71,52,32,37,31,27,87,52,22,30.17,30.12,30.06,10,10,8,21,8,32,0.00,0,,324
2012-11-7,68,52,37,30,27,23,70,42,21,30.21,30.11,29.99,10,10,8,18,8,23,0.00,0,,134
2012-11-8,80,62,44,50,41,30,82,50,26,29.99,29.85,29.77,10,10,10,23,11,32,0.00,0,,182
2012-11-9,82,68,55,55,52,48,82,55,30,29.80,29.75,29.68,10,10,10,28,15,38,0.00,0,,194
2012-11-10,77,68,59,57,55,52,88,61,47,29.76,29.68,29.59,10,10,2,36,24,51,0.02,2,Rain-Thunderstorm,188
2012-11-11,59,42,24,55,26,16,88,62,39,30.32,30.03,29.70,10,10,3,22,13,29,0.10,3,Rain,343
2012-11-12,53,36,19,27,19,14,86,54,22,30.47,30.41,30.33,10,10,10,12,6,,0.00,0,,266
2012-11-13,55,40,26,32,24,19,86,57,25,30.43,30.34,30.25,10,10,9,20,11,25,0.00,1,,194
2012-11-14,57,42,26,30,25,21,86,59,27,30.33,30.26,30.19,10,10,8,13,9,,0.00,1,,189
2012-11-15,60,46,32,37,31,27,81,61,34,30.37,30.24,30.17,10,10,9,12,8,,0.00,1,,105
2012-11-16,62,46,30,39,32,27,93,66,34,30.42,30.36,30.31,10,9,5,15,7,20,0.00,2,,143
2012-11-17,64,50,35,37,33,28,87,57,32,30.30,30.24,30.17,10,10,8,25,14,32,0.00,2,,181
2012-11-18,68,54,41,43,36,28,71,50,34,30.18,30.09,30.01,10,10,9,31,15,38,0.00,2,,175
2012-11-19,69,55,41,50,45,37,93,73,46,30.16,30.11,30.05,10,9,5,14,7,,0.00,0,,171
2012-11-20,69,53,37,41,38,36,100,64,31,30.27,30.21,30.17,10,9,5,9,6,,0.00,0,,179
2012-11-21,75,57,39,48,42,37,100,61,27,30.20,30.10,29.92,10,9,2,30,12,38,0.00,0,,195
2012-11-22,75,62,48,50,43,28,68,47,23,30.34,29.99,29.87,10,10,10,28,19,36,0.00,0,,256
2012-11-23,50,38,26,30,21,16,75,48,28,30.59,30.49,30.36,10,10,9,21,10,24,0.00,1,,356
2012-11-24,64,44,24,27,21,16,74,45,18,30.42,30.13,29.90,10,10,9,25,12,36,0.00,2,,199
2012-11-25,59,46,32,30,26,23,70,49,29,29.92,29.88,29.85,10,10,9,13,8,17,0.00,0,,44
2012-11-26,48,39,28,28,25,18,87,61,30,30.46,30.19,29.91,10,10,7,28,16,34,0.00,0,,17
2012-11-27,50,34,17,27,22,14,93,70,35,30.46,30.35,30.24,10,8,5,20,9,26,0.00,0,,217
2012-11-28,60,42,23,36,28,18,86,64,34,30.34,30.24,30.08,10,10,7,16,6,21,0.00,2,,135
2012-11-29,66,50,35,41,38,32,87,70,37,30.07,30.02,29.96,10,10,9,23,10,28,0.00,0,,207
2012-11-30,57,50,41,48,46,41,100,87,72,29.96,29.94,29.90,10,6,0,9,7,,0.00,3,Fog,137